TimeCET,TemperatureF,Dew PointF,Humidity,Sea Level PressureIn,VisibilityMPH,Wind Direction,Wind SpeedMPH,Gust SpeedMPH,PrecipitationIn,Events,Conditions,WindDirDegrees,DateUTC
12:15 AM,28.4,21.2,74,29.86,6.2,SE,11.2,-,N/A,,Overcast,130,2012-12-07 23:15:00
12:45 AM,28.4,21.2,74,29.86,6.2,SE,11.2,-,N/A,,Overcast,130,2012-12-07 23:45:00
1:15 AM,28.4,21.2,74,29.89,6.2,SE,6.7,-,N/A,,Overcast,130,2012-12-08 00:15:00
1:45 AM,28.4,19.4,69,29.89,6.2,ESE,8.9,-,N/A,,Overcast,120,2012-12-08 00:45:00
2:15 AM,28.4,19.4,69,29.89,6.2,ESE,6.7,-,N/A,,Overcast,110,2012-12-08 01:15:00
2:45 AM,28.4,19.4,69,29.86,6.2,ESE,8.9,-,N/A,,Overcast,110,2012-12-08 01:45:00
3:15 AM,28.4,19.4,69,29.86,6.2,East,8.9,-,N/A,,Overcast,80,2012-12-08 02:15:00
3:45 AM,28.4,19.4,69,29.89,6.2,East,8.9,-,N/A,,Overcast,80,2012-12-08 02:45:00
4:15 AM,28.4,17.6,64,29.89,6.2,ENE,8.9,-,N/A,,Overcast,70,2012-12-08 03:15:00
4:45 AM,28.4,17.6,64,29.86,-9999.0,ENE,8.9,-,N/A,,Clear,70,2012-12-08 03:45:00
5:15 AM,26.6,17.6,69,29.83,-9999.0,ENE,11.2,-,N/A,,Clear,60,2012-12-08 04:15:00
5:45 AM,-9999,-9999,N/A,-9999,-9999.0,ENE,13.4,-,N/A,,Clear,60,2012-12-08 04:45:00
6:15 AM,26.6,19.4,74,29.86,-9999.0,ENE,13.4,-,N/A,,Clear,60,2012-12-08 05:15:00
7:15 AM,26.6,19.4,74,29.89,-9999.0,NE,8.9,-,N/A,,Clear,40,2012-12-08 06:15:00
7:45 AM,24.8,19.4,80,29.89,-9999.0,NE,11.2,-,N/A,,Clear,40,2012-12-08 06:45:00
8:15 AM,24.8,19.4,80,29.92,-9999.0,NE,11.2,-,N/A,,Clear,40,2012-12-08 07:15:00
8:45 AM,-9999,-9999,N/A,-9999,3.1,NE,13.4,-,N/A,,Unknown,50,2012-12-08 07:45:00
9:15 AM,24.8,19.4,80,29.95,-9999.0,NNE,11.2,-,N/A,,Clear,30,2012-12-08 08:15:00
9:45 AM,24.8,19.4,80,29.95,-9999.0,NNE,11.2,-,N/A,,Clear,30,2012-12-08 08:45:00
10:15 AM,24.8,17.6,74,29.95,-9999.0,NE,11.2,-,N/A,,Clear,40,2012-12-08 09:15:00
10:45 AM,24.8,17.6,74,29.95,-9999.0,NE,13.4,-,N/A,,Clear,40,2012-12-08 09:45:00
11:15 AM,24.8,17.6,74,29.95,-9999.0,NNE,13.4,-,N/A,,Clear,30,2012-12-08 10:15:00
11:45 AM,-9999,-9999,N/A,-9999,3.1,NNE,13.4,-,N/A,,Unknown,30,2012-12-08 10:45:00
12:15 PM,24.8,17.6,74,29.95,-9999.0,NNE,13.4,-,N/A,,Clear,20,2012-12-08 11:15:00
12:45 PM,26.6,17.6,69,29.95,-9999.0,NNE,13.4,-,N/A,,Clear,20,2012-12-08 11:45:00
1:15 PM,26.6,15.8,64,29.95,-9999.0,NNE,13.4,-,N/A,,Clear,20,2012-12-08 12:15:00
1:45 PM,26.6,15.8,64,29.95,-9999.0,NNE,13.4,24.6,N/A,,Clear,20,2012-12-08 12:45:00
2:15 PM,28.4,15.8,59,29.95,-9999.0,NNE,11.2,22.4,N/A,,Clear,20,2012-12-08 13:15:00
2:45 PM,-9999,-9999,N/A,-9999,3.1,NNE,13.4,-,N/A,,Unknown,20,2012-12-08 13:45:00
3:15 PM,26.6,15.8,64,29.98,-9999.0,North,13.4,-,N/A,,Clear,360,2012-12-08 14:15:00
3:45 PM,26.6,15.8,64,29.98,-9999.0,North,13.4,-,N/A,,Clear,360,2012-12-08 14:45:00
4:15 PM,26.6,15.8,64,30.01,-9999.0,North,13.4,-,N/A,,Clear,10,2012-12-08 15:15:00
4:45 PM,26.6,15.8,64,30.01,-9999.0,North,11.2,-,N/A,,Clear,360,2012-12-08 15:45:00
5:15 PM,26.6,19.4,74,30.01,-9999.0,NNW,15.7,-,N/A,,Clear,340,2012-12-08 16:15:00
5:45 PM,-9999,-9999,N/A,-9999,-9999.0,North,13.4,-,N/A,,Clear,360,2012-12-08 16:45:00
6:15 PM,24.8,15.8,69,30.06,-9999.0,NNW,11.2,-,N/A,,Clear,340,2012-12-08 17:15:00
6:45 PM,24.8,15.8,69,30.06,-9999.0,NNW,13.4,-,N/A,,Clear,340,2012-12-08 17:45:00
7:15 PM,24.8,17.6,74,30.06,-9999.0,NNW,13.4,-,N/A,,Clear,340,2012-12-08 18:15:00
7:45 PM,24.8,17.6,74,30.06,-9999.0,NNW,11.2,-,N/A,,Clear,340,2012-12-08 18:45:00
8:15 PM,24.8,17.6,74,30.09,-9999.0,North,13.4,-,N/A,,Clear,350,2012-12-08 19:15:00
8:45 PM,-9999,-9999,N/A,-9999,-9999.0,North,13.4,-,N/A,,Clear,350,2012-12-08 19:45:00
9:15 PM,24.8,15.8,69,30.09,-9999.0,North,13.4,-,N/A,,Clear,350,2012-12-08 20:15:00
9:45 PM,24.8,15.8,69,30.09,-9999.0,North,13.4,24.6,N/A,,Clear,350,2012-12-08 20:45:00
10:15 PM,24.8,15.8,69,30.09,-9999.0,NNW,15.7,26.8,N/A,,Clear,340,2012-12-08 21:15:00
10:45 PM,24.8,17.6,74,30.09,-9999.0,North,17.9,-,N/A,,Clear,350,2012-12-08 21:45:00
11:15 PM,24.8,15.8,69,30.09,-9999.0,NNW,24.6,-,N/A,,Clear,340,2012-12-08 22:15:00
11:45 PM,24.8,17.6,74,30.12,-9999.0,NNW,20.1,-,N/A,,Clear,340,2012-12-08 22:45:00